Minot, ND

12:08 PM CDT on June 28, 2017 (GMT -0500)
Minot International

Weather History for KMOT - August, 2013

Change the Weather History Date:

Saturday, August 3, 2013

  Actual Average Record
Temperature  
Mean Temperature 65 °F 71 °F  
Max Temperature 75 °F 83 °F 103 °F (1947)
Min Temperature 54 °F 58 °F 38 °F (1904)
Cooling Degree Days 0 6  
Month to date cooling degree days 1 18  
Year to date cooling degree days 198 276  
Since 1 June cooling degree days 188 260  
Growing Degree Days 15 (Base 50)    
Moisture  
Dew Point 52 °F    
Average Humidity 67    
Maximum Humidity 93    
Minimum Humidity 41    
Precipitation  
Precipitation T in 0.07 in 1.16 in (1911)
Month to date precipitation T 0.21  
Year to date precipitation 17.41 11.61  
Sea Level Pressure  
Sea Level Pressure 30.19 in    
Wind  
Wind Speed 8 mph (East)    
Max Wind Speed 14 mph    
Max Gust Speed 21 mph    
Visibility 10 miles    
Events      
T = Trace of Precipitation, MM = Missing Value Source: NWS Daily Summary

Daily Weather History Graph

Daily Weather History Graph

Search for Another Location

Airport or City:

Trip Planner

Search our weather history database for the weather conditions in past years. The results will help you decide how hot, cold, wet, or windy it might be!

Date:

Astronomy

Aug. 03, 2013 Rise Set
Actual Time 6:23 AM CDT 9:18 PM CDT
Civil Twilight 5:47 AM CDT 9:54 PM CDT
Nautical Twilight 5:00 AM CDT 10:40 PM CDT
Astronomical Twilight 4:03 AM CDT 11:36 PM CDT
Moon 3:31 AM CDT (8/3) 7:04 PM CDT (8/3)
Length of Visible Light 16h 07m
Length of Day
14h 54m
Waning Crescent, 9% of the Moon is Illuminated
Aug 3
Waning Crescent
Aug 6
New
Aug 14
First Quarter
Aug 20
Full
Aug 28
Last Quarter

Hourly Weather History & Observations

Time (CDT) Temp. Dew Point Humidity Pressure Visibility Wind Dir Wind Speed Gust Speed Precip Events Conditions
12:54 AM 61.0 °F 52.0 °F 72% 30.16 in 10.0 mi Calm Calm - 0.00 in   Overcast
1:54 AM 60.1 °F 53.1 °F 78% 30.16 in 10.0 mi East 3.5 mph - 0.00 in   Overcast
2:54 AM 57.9 °F 54.0 °F 87% 30.16 in 10.0 mi North 5.8 mph - N/A   Overcast
3:54 AM 59.0 °F 53.1 °F 81% 30.17 in 10.0 mi NE 3.5 mph - N/A   Overcast
4:54 AM 55.9 °F 53.1 °F 90% 30.17 in 10.0 mi North 3.5 mph - N/A   Mostly Cloudy
5:54 AM 55.0 °F 52.0 °F 89% 30.17 in 10.0 mi NE 4.6 mph - N/A   Mostly Cloudy
6:54 AM 55.9 °F 53.1 °F 90% 30.21 in 10.0 mi NE 3.5 mph - N/A   Overcast
7:54 AM 57.0 °F 54.0 °F 89% 30.22 in 10.0 mi ENE 5.8 mph - N/A   Overcast
8:54 AM 61.0 °F 54.0 °F 78% 30.23 in 10.0 mi East 4.6 mph - N/A   Overcast
9:54 AM 63.0 °F 51.1 °F 65% 30.23 in 10.0 mi ESE 10.4 mph - N/A   Overcast
10:54 AM 66.0 °F 51.1 °F 59% 30.24 in 10.0 mi East 9.2 mph - N/A   Overcast
11:54 AM 68.0 °F 52.0 °F 56% 30.23 in 10.0 mi ESE 9.2 mph - N/A   Mostly Cloudy
12:54 PM 71.1 °F 52.0 °F 51% 30.23 in 10.0 mi ESE 12.7 mph - N/A   Clear
1:54 PM 72.0 °F 51.1 °F 48% 30.22 in 10.0 mi SE 9.2 mph - N/A   Mostly Cloudy
2:54 PM 75.0 °F 52.0 °F 44% 30.22 in 10.0 mi ESE 12.7 mph - N/A   Mostly Cloudy
3:54 PM 75.0 °F 50.0 °F 41% 30.21 in 10.0 mi East 11.5 mph 20.7 mph N/A   Scattered Clouds
4:54 PM 75.0 °F 50.0 °F 41% 30.20 in 10.0 mi ESE 9.2 mph - N/A   Partly Cloudy
5:54 PM 73.9 °F 48.9 °F 41% 30.19 in 10.0 mi SE 12.7 mph - N/A   Partly Cloudy
6:54 PM 73.0 °F 50.0 °F 44% 30.18 in 10.0 mi ESE 11.5 mph - N/A   Clear
7:54 PM 71.1 °F 51.1 °F 49% 30.17 in 10.0 mi ESE 10.4 mph - N/A   Clear
8:54 PM 64.9 °F 53.1 °F 65% 30.16 in 10.0 mi East 6.9 mph - N/A   Scattered Clouds
9:54 PM 63.0 °F 52.0 °F 67% 30.16 in 10.0 mi East 6.9 mph - N/A   Mostly Cloudy
10:54 PM 60.1 °F 53.1 °F 78% 30.18 in 10.0 mi East 5.8 mph - N/A   Scattered Clouds
11:54 PM 63.0 °F 50.0 °F 63% 30.20 in 10.0 mi East 8.1 mph - N/A   Overcast